Wind_Speed
28 28 30 27 21 21 23 22 18 16 14 14 12 14 15 15 16 18 20 22 25 29 30 31 32 33 34 35 34 34 34 35 37 39 42 42 42 43 45 48 46 43 45
35 37 40 34 31 26 21 20 19 18 17 15 13 16 16 17 17 19 19 22 26 29 32 32 33 33 34 34 34 35 35 37 38 38 41 42 43 43 44 47 46 42 44
43 35 48 40 35 26 26 21 19 18 16 14 14 16 18 19 19 19 19 23 27 30 32 34 34 33 34 34 35 36 38 39 39 39 40 42 42 43 43 44 44 41 43
42 40 30 34 28 26 23 22 20 17 15 12 13 17 20 20 21 19 20 24 28 31 34 34 33 33 34 35 36 38 39 41 39 40 40 41 43 42 43 43 41 40 44
42 40 31 34 32 24 21 20 18 15 14 11 14 19 21 22 21 20 22 24 28 32 35 34 32 32 34 36 37 38 39 40 40 41 41 42 42 43 42 43 42 40 42
44 47 37 28 26 25 18 19 19 16 12 13 17 19 22 22 21 22 23 25 29 32 34 34 31 31 33 35 38 40 41 41 43 44 43 43 42 42 43 43 41 39 41
52 42 35 30 27 21 20 23 20 16 13 16 19 19 19 20 21 22 23 25 29 31 31 31 29 30 33 37 39 41 42 44 44 44 44 43 42 41 42 43 42 42 42
50 40 39 26 26 23 24 22 18 16 17 19 18 16 18 19 21 21 23 25 29 30 30 28 28 30 34 37 39 41 44 45 46 47 44 42 40 40 42 42 40 43 44
45 34 32 30 27 25 24 20 19 17 19 19 18 17 18 20 21 20 23 25 29 29 28 27 28 31 35 38 37 43 43 46 44 42 41 40 41 42 42 41 40 40 44
40 37 31 27 25 26 23 22 19 19 18 18 17 17 19 20 20 20 22 25 26 27 26 26 29 33 37 38 40 42 45 44 43 41 41 42 40 39 39 41 41 42 46
44 36 31 26 27 26 23 21 20 20 18 19 17 18 20 18 19 20 22 24 26 26 26 27 30 34 35 37 39 42 42 39 39 39 41 42 41 41 43 43 42 45 46
35 30 28 25 26 23 21 22 22 21 20 20 19 21 18 19 20 21 22 24 25 26 26 27 31 35 36 39 39 39 36 37 38 40 41 43 43 44 44 45 46 47 47
35 30 30 33 27 25 25 25 24 22 22 19 21 19 18 19 20 21 23 25 27 28 27 28 31 33 36 37 37 35 36 37 42 41 41 41 43 45 47 49 49 48 47
32 32 30 30 29 27 27 24 23 22 20 20 20 20 19 19 20 23 24 26 27 26 26 27 31 33 34 35 34 34 36 41 41 40 40 43 45 48 48 48 49 49 52
31 33 29 29 30 30 29 26 24 22 21 21 22 21 20 20 22 25 25 27 26 26 27 28 31 31 31 33 34 36 39 41 41 43 44 44 45 46 48 50 52 55 56
33 30 28 26 28 27 26 22 23 22 23 22 21 21 21 21 24 25 25 26 26 25 25 28 29 29 31 34 36 39 41 42 43 45 46 45 45 47 49 53 56 57 52
34 32 33 33 31 30 28 27 24 23 22 20 19 20 21 23 24 24 25 25 24 23 26 26 26 28 32 35 37 38 40 42 45 46 45 46 47 50 53 54 52 45 42
39 41 40 38 35 28 24 22 21 20 19 19 20 22 24 24 24 25 25 25 23 24 24 24 26 29 33 35 37 38 42 43 44 44 43 45 49 51 51 47 41 40 39
51 48 44 40 35 28 24 20 20 20 19 20 22 23 24 24 25 25 25 23 23 22 22 24 27 30 33 34 36 40 43 44 44 43 44 46 51 49 45 39 39 37 36
50 39 39 36 29 23 20 18 17 17 19 20 21 23 25 24 25 24 24 23 21 20 22 26 29 31 32 34 37 42 44 42 39 42 44 48 50 46 39 36 36 35 31
47 37 33 30 24 22 19 17 16 16 17 17 19 21 24 25 26 25 26 22 21 21 23 27 30 32 32 36 41 43 42 39 41 45 47 49 49 43 36 34 34 27 27
46 32 29 28 26 24 22 23 19 15 15 18 21 25 26 26 27 26 26 21 22 22 25 28 30 31 33 36 41 41 38 37 40 43 45 47 46 36 34 34 27 28 26
32 28 28 28 27 27 25 25 22 18 19 21 27 28 26 26 27 26 24 23 22 24 27 29 30 31 34 38 38 38 37 38 41 45 45 46 43 37 34 31 26 28 28
30 25 24 24 27 26 27 26 23 21 21 24 27 30 25 27 24 24 24 25 24 27 28 30 30 32 35 34 36 37 37 39 42 44 46 44 40 34 34 31 28 28 29
27 27 25 26 27 28 27 26 24 25 30 33 35 29 26 26 25 24 25 25 27 28 29 30 32 34 34 34 35 35 36 38 41 41 43 42 38 36 34 31 30 29 29
28 29 29 29 28 29 30 34 36 32 37 39 40 29 27 27 26 25 26 28 29 29 30 32 32 33 33 34 37 38 37 38 40 40 41 40 37 35 33 30 30 31 30
Wind_Direction
212 219 231 222 224 224 222 226 230 240 247 255 250 254 258 268 282 294 300 314 318 326 329 332 333 332 332 330 330 332 330 333 336 339 341 342 341 340 344 344 345 347 350
218 219 223 213 222 214 229 225 228 241 250 253 249 253 256 266 278 289 302 318 318 324 330 331 330 331 330 329 328 330 329 330 333 338 341 341 339 339 342 343 345 347 350
213 224 218 219 214 219 220 224 223 231 244 243 244 252 256 264 276 287 305 313 317 323 328 329 328 329 327 328 327 326 329 329 330 332 337 339 340 340 341 341 343 344 349
215 228 214 215 191 204 209 214 217 225 236 245 249 253 256 265 274 290 303 309 316 322 326 327 325 327 326 326 327 326 325 327 329 330 332 336 337 340 341 339 340 341 346
218 223 232 223 188 199 205 208 215 227 238 250 256 257 260 263 276 290 300 310 315 318 326 324 324 325 325 323 324 324 324 326 326 328 330 332 335 335 337 336 339 341 345
218 222 226 183 189 203 201 212 217 228 237 254 260 261 262 268 278 289 298 308 313 318 324 323 325 326 326 326 322 322 326 325 325 327 329 330 331 332 332 333 336 339 342
221 205 191 179 205 199 204 211 217 230 242 253 256 259 265 271 279 289 299 306 310 321 322 324 324 327 329 328 327 326 326 325 326 326 326 327 329 330 330 333 335 338 339
209 207 198 185 203 196 208 209 216 230 240 246 255 262 266 271 278 291 297 304 312 321 318 323 327 330 331 329 328 328 327 326 327 326 326 326 329 330 332 332 335 339 338
209 209 180 183 194 203 207 209 221 232 240 246 256 262 268 273 281 290 298 307 316 318 318 323 327 329 328 328 328 328 327 327 327 327 328 331 330 331 332 333 333 336 336
190 180 177 187 195 206 206 211 222 236 243 251 257 263 270 278 286 294 302 310 317 316 317 321 326 325 325 325 325 328 327 328 329 330 330 332 332 331 331 331 331 333 331
175 175 177 185 202 209 210 216 225 235 242 249 254 262 269 282 291 294 302 313 314 311 315 320 323 324 324 326 329 328 329 329 330 331 331 330 330 329 330 330 329 327 327
170 173 181 192 205 209 218 223 229 235 241 247 256 270 279 287 289 293 303 310 308 307 312 319 322 324 326 328 328 328 330 331 331 332 331 330 330 329 328 326 326 326 328
181 181 189 202 208 213 220 226 231 237 242 250 265 276 281 282 287 293 300 305 305 302 311 320 321 325 327 327 329 331 330 332 332 330 330 331 328 325 326 327 327 328 328
175 192 195 199 206 216 223 228 233 236 247 257 268 273 273 280 285 289 297 304 301 303 310 319 323 327 327 329 330 329 330 330 330 331 331 329 328 328 328 328 327 325 323
188 196 198 213 223 222 230 230 233 241 249 257 264 269 275 276 283 289 297 302 301 304 312 319 323 326 326 327 328 328 328 328 330 332 331 330 330 331 330 329 326 323 323
208 206 216 216 215 223 229 240 238 240 248 254 260 268 273 280 287 294 298 300 299 304 313 317 321 324 327 327 328 327 329 329 332 331 332 332 333 332 331 328 326 328 334
208 217 221 214 217 215 227 235 233 238 247 252 259 265 272 277 284 290 296 297 301 308 312 314 320 325 326 326 326 328 329 330 331 332 333 335 335 336 334 332 336 343 348
216 218 221 223 211 219 228 233 239 245 248 256 264 269 272 274 280 289 292 299 300 305 308 313 321 325 323 324 328 329 327 329 330 331 335 335 337 338 336 340 348 349 349
221 224 224 210 212 218 225 228 237 246 255 261 265 268 270 273 283 291 296 296 299 302 306 316 322 320 319 324 327 326 326 330 330 333 335 337 338 339 340 347 347 351 353
214 200 199 205 205 208 213 227 245 253 256 260 266 269 270 277 286 290 296 294 293 300 308 314 314 314 318 324 325 325 328 330 333 334 337 337 339 341 342 344 345 351 -0
194 195 196 202 203 209 218 229 239 248 254 260 267 275 278 283 285 287 289 287 291 296 307 309 311 314 319 323 322 326 329 332 335 336 337 337 338 340 340 342 344 353 357
197 192 194 200 206 213 223 231 240 253 269 274 279 286 282 280 281 283 280 279 287 299 303 306 310 313 317 322 324 327 328 330 334 335 336 337 337 337 337 340 342 342 345
192 192 201 207 214 222 233 239 248 263 278 286 295 292 276 272 277 274 274 281 290 296 298 303 306 312 319 323 325 327 327 330 331 333 334 337 336 334 334 335 335 335 340
207 208 214 221 227 235 241 247 250 264 275 289 291 290 268 271 265 266 273 281 288 290 297 300 305 314 317 320 324 327 326 327 328 331 333 335 334 330 330 328 330 332 335
223 223 228 231 240 247 247 251 265 277 278 282 285 272 261 260 261 268 274 281 284 289 296 298 308 313 315 318 320 322 322 323 326 328 330 330 330 329 327 324 325 330 333
238 236 232 236 246 246 253 269 275 275 285 276 273 259 255 256 260 268 275 278 283 289 293 299 307 308 312 316 318 318 319 322 324 326 328 327 326 324 323 321 323 326 330
Height
5799 5805 5810 5817 5823 5826 5829 5832 5835 5837 5838 5838 5837 5838 5838 5838 5838 5837 5836 5833 5830 5825 5819 5814 5809 5806 5801 5795 5790 5785 5779 5772 5764 5757 5749 5742 5734 5726 5717 5708 5701 5690 5679
5791 5797 5805 5811 5817 5822 5826 5827 5830 5832 5833 5833 5833 5833 5833 5835 5835 5834 5832 5829 5825 5820 5815 5810 5806 5802 5797 5791 5786 5782 5776 5769 5761 5753 5746 5738 5730 5723 5714 5705 5697 5688 5678
5783 5791 5797 5804 5810 5815 5819 5821 5823 5827 5829 5828 5828 5829 5830 5831 5831 5829 5827 5824 5820 5815 5811 5807 5803 5798 5793 5788 5783 5778 5772 5766 5758 5751 5744 5737 5728 5719 5711 5702 5693 5685 5675
5780 5787 5791 5794 5802 5810 5813 5817 5821 5822 5822 5823 5824 5826 5827 5827 5827 5825 5822 5820 5815 5812 5807 5803 5799 5794 5789 5785 5780 5775 5769 5762 5754 5747 5740 5733 5726 5718 5710 5701 5691 5682 5673
5775 5781 5785 5789 5798 5807 5809 5812 5815 5816 5817 5818 5820 5822 5823 5823 5822 5820 5818 5815 5811 5808 5804 5800 5795 5790 5785 5781 5776 5771 5764 5757 5750 5744 5737 5730 5722 5715 5707 5699 5689 5680 5670
5768 5773 5782 5787 5794 5800 5802 5807 5810 5811 5813 5815 5817 5817 5819 5819 5817 5816 5813 5810 5807 5803 5800 5796 5791 5786 5782 5778 5772 5767 5761 5754 5746 5740 5733 5725 5717 5709 5702 5695 5687 5679 5670
5757 5765 5775 5782 5790 5792 5797 5803 5804 5807 5809 5810 5813 5812 5813 5813 5812 5811 5808 5805 5802 5799 5795 5791 5787 5782 5778 5774 5768 5762 5757 5750 5742 5735 5728 5720 5713 5705 5698 5690 5682 5675 5667
5753 5760 5772 5778 5784 5787 5793 5797 5799 5802 5805 5806 5807 5806 5808 5807 5806 5805 5803 5800 5798 5793 5790 5786 5782 5777 5772 5768 5763 5758 5751 5744 5737 5731 5723 5716 5708 5700 5692 5685 5678 5670 5662
5747 5756 5765 5772 5777 5784 5788 5791 5794 5796 5800 5801 5802 5802 5803 5802 5801 5799 5798 5795 5792 5788 5786 5782 5777 5772 5768 5764 5758 5753 5746 5740 5732 5725 5717 5711 5704 5696 5688 5681 5674 5667 5659
5741 5753 5759 5765 5772 5778 5782 5787 5789 5793 5794 5797 5797 5797 5797 5797 5796 5794 5792 5791 5787 5784 5782 5778 5772 5768 5764 5759 5753 5748 5741 5734 5727 5720 5712 5705 5698 5691 5684 5677 5670 5663 5656
5740 5746 5752 5762 5770 5775 5779 5780 5785 5787 5790 5791 5790 5790 5791 5792 5790 5788 5787 5785 5782 5780 5777 5772 5767 5763 5759 5754 5748 5742 5736 5729 5723 5716 5707 5700 5693 5685 5679 5672 5665 5657 5649
5734 5743 5751 5759 5766 5770 5773 5777 5780 5782 5784 5784 5784 5784 5786 5784 5784 5784 5781 5779 5778 5775 5772 5766 5762 5759 5754 5749 5743 5737 5732 5725 5718 5711 5703 5696 5688 5680 5673 5665 5658 5650 5642
5730 5739 5746 5754 5760 5765 5770 5772 5774 5775 5777 5777 5777 5778 5779 5779 5778 5777 5775 5773 5772 5770 5766 5760 5757 5753 5748 5743 5738 5733 5728 5721 5714 5705 5697 5690 5683 5675 5667 5659 5650 5642 5634
5723 5735 5742 5751 5756 5759 5761 5764 5767 5768 5770 5770 5771 5773 5773 5772 5772 5771 5769 5768 5767 5764 5759 5755 5752 5748 5743 5738 5734 5729 5723 5716 5708 5699 5691 5684 5676 5669 5661 5652 5643 5633 5625
5722 5731 5739 5744 5749 5751 5755 5758 5760 5762 5763 5764 5766 5767 5766 5766 5766 5766 5764 5763 5760 5757 5753 5750 5747 5743 5738 5734 5729 5724 5717 5710 5703 5696 5687 5679 5671 5663 5654 5645 5635 5625 5616
5719 5726 5732 5736 5741 5746 5749 5751 5753 5756 5758 5759 5760 5759 5759 5759 5760 5758 5757 5756 5753 5751 5748 5745 5741 5737 5733 5730 5725 5720 5712 5707 5699 5690 5682 5675 5666 5657 5648 5638 5628 5618 5607
5712 5719 5725 5730 5736 5739 5742 5746 5748 5750 5752 5753 5753 5753 5754 5756 5754 5753 5753 5750 5747 5744 5742 5739 5736 5732 5729 5725 5719 5713 5707 5702 5694 5685 5678 5670 5661 5652 5642 5631 5621 5612 5604
5707 5714 5719 5724 5729 5733 5737 5740 5742 5744 5745 5747 5748 5749 5749 5749 5748 5747 5746 5742 5740 5738 5736 5734 5730 5727 5725 5720 5714 5708 5703 5695 5687 5679 5671 5664 5655 5647 5636 5627 5619 5611 5604
5700 5705 5712 5717 5721 5725 5731 5735 5737 5739 5739 5741 5742 5742 5743 5742 5742 5741 5738 5735 5733 5732 5731 5728 5725 5722 5719 5713 5707 5702 5696 5688 5681 5674 5668 5660 5651 5641 5632 5624 5617 5610 5603
5692 5698 5705 5709 5714 5721 5726 5729 5731 5732 5733 5734 5735 5736 5736 5736 5735 5733 5732 5729 5727 5726 5724 5721 5719 5716 5712 5707 5701 5697 5690 5682 5675 5669 5663 5655 5646 5637 5628 5621 5614 5608 5602
5688 5693 5698 5705 5711 5716 5719 5722 5725 5725 5726 5728 5729 5728 5728 5728 5727 5726 5725 5723 5721 5720 5717 5716 5713 5710 5706 5701 5696 5690 5684 5678 5672 5666 5659 5651 5642 5633 5625 5619 5612 5606 5600
5681 5686 5693 5699 5705 5710 5714 5717 5719 5719 5721 5722 5722 5720 5718 5720 5720 5719 5718 5716 5714 5713 5711 5709 5707 5704 5699 5694 5690 5684 5678 5672 5666 5660 5653 5645 5637 5629 5622 5616 5610 5605 5599
5676 5682 5689 5693 5698 5703 5707 5709 5711 5712 5713 5713 5712 5711 5711 5712 5712 5711 5711 5710 5707 5706 5704 5702 5699 5696 5692 5687 5683 5677 5672 5666 5661 5654 5647 5640 5633 5627 5620 5613 5608 5603 5597
5672 5678 5683 5688 5693 5697 5699 5701 5703 5703 5703 5704 5703 5704 5704 5705 5704 5703 5702 5701 5700 5699 5697 5695 5692 5688 5683 5679 5675 5669 5665 5660 5655 5648 5642 5635 5628 5622 5616 5611 5604 5599 5594
5670 5675 5680 5683 5685 5688 5690 5692 5694 5695 5696 5694 5696 5697 5697 5696 5697 5696 5695 5694 5693 5692 5690 5688 5684 5680 5676 5672 5667 5661 5656 5652 5647 5641 5635 5629 5623 5619 5613 5608 5602 5595 5589
5663 5666 5671 5675 5677 5678 5680 5681 5682 5683 5684 5685 5687 5688 5689 5688 5689 5688 5688 5687 5685 5684 5682 5679 5675 5671 5667 5664 5660 5655 5650 5644 5639 5634 5628 5623 5617 5612 5607 5602 5597 5591 5586